Regional Weather Roundup
Issued by NWS Upton, NY

Current Version | Previous Version | Text Only | Print | Product List | Glossary On
Versions: 1 2 3 4 5 6 7 8 9 10 11 12 13 14 15 16 17 18 19 20 21 22 23 24 25 26 27 28 29 30 31 32 33 34 35 36 37 38 39 40 41 42 43 44 45 46 47 48 49 50
000
ASUS41 KOKX 301605
RWROKX

REGIONAL WEATHER ROUNDUP
NATIONAL WEATHER SERVICE NEW YORK NY
1200 PM EDT FRI SEP 30 2016

NOTE: "FAIR" INDICATES FEW OR NO CLOUDS BELOW 12,000 FEET WITH NO
SIGNIFICANT WEATHER AND/OR OBSTRUCTIONS TO VISIBILITY.

NYZ071-072-176-178-NJZ106-104-301700-
NEW YORK CITY METRO AREA

CITY           SKY/WX    TMP DP  RH WIND       PRES   REMARKS
Central Park   LGT RAIN  58  54  86 NE10G17   30.32F FOG
LaGuardia APRT LGT RAIN  62  57  83 NE24G32   30.29F
Kennedy INTL   RAIN      62  57  83 NE18G25   30.29S
Newark/Liberty LGT RAIN  59  56  89 NE16      30.29F FOG
Bronx Bot Gard   N/A     59  52  77 NW12      30.32R
Wall St Helipt CLOUDY    63  61  94 NE14G29   30.29S
Teterboro      DRIZZLE   60  53  77 VRB5      30.29F
$$

NYZ177-179-078>081-301700-
LONG ISLAND NEW YORK

CITY           SKY/WX    TMP DP  RH WIND       PRES   REMARKS
Farmingdale    HVY RAIN  60  58  92 NE13G22   30.29R FOG
MacArthur/ISP  LGT RAIN  60  57  89 NE16G29   30.29F FOG
Shirley        RAIN      60  58  92 VRB7      30.31S FOG
Riverhead      NOT AVBL
Westhampton    LGT RAIN  60  56  86 NE16G24   30.32F
Southampton      N/A     61  59  94 NE12      30.28S
Bridgehampton    N/A     59  57  94 E5        30.17F
East Hampton   LGT RAIN  60  56  88 E14G26    30.33S
Montauk          N/A     60  57  89 NE16G25   30.35R
$$

NYZ052-065-067-301700-
HUDSON VALLEY

CITY           SKY/WX    TMP DP  RH WIND       PRES   REMARKS
White Plains   DRIZZLE   58  52  80 NE12G18   30.30F
Newburgh       CLOUDY    59  52  77 E12G21    30.36F
Montgomery     CLOUDY    59  51  75 NE14      30.35F
Poughkeepsie   CLOUDY    61  48  62 NE13      30.35F
Albany         PTSUNNY   62  43  49 NE10      30.42F
$$

NJZ001-105-106-008-010-013-015-019>022-104-301700-
NEW JERSEY

CITY           SKY/WX    TMP DP  RH WIND       PRES   REMARKS
Newark/Liberty LGT RAIN  59  56  89 NE16      30.29F FOG
Teterboro      DRIZZLE   60  53  77 VRB5      30.29F
Caldwell       CLOUDY    58  53  84 NE9G18    30.31F
Morristown     DRIZZLE   57  55  94 NE8G15    30.31F
Somerville     CLOUDY    59  53  80 NE10G20   30.27S
Linden         NOT AVBL
Sussex         CLOUDY    55  52  89 NE9       30.33F
Abdover          N/A     53  51  93 NE8       30.31F
Trenton        CLOUDY    58  55  90 NE14G22   30.25S
Millville      LGT RAIN  65  65 100 NE15G23   30.18S FOG
Atlantic City  LGT RAIN  64  62  93 NE21G31   30.18R FOG
Wrightstown    CLOUDY    63  61  93 NE21G28   30.20S
Toms River     LGT RAIN  63  62  97 NE22      30.23F FOG
Belmar         RAIN      61  60  97 NE17G26   30.25F FOG
$$

PAZ047>061-062-071-301700-
EASTERN PENNSYLVANIA

CITY           SKY/WX    TMP DP  RH WIND       PRES   REMARKS
Philadelphia   DRIZZLE   60  57  89 NE16      30.22F FOG
Allentown      CLOUDY    56  51  84 E20       30.28S
Scranton       LGT RAIN  54  51  90 NE12      30.30F
$$

CTZ002-004>006-009-010-012-RIZ004-006-007-MAZ004-011-015-301700-
SOUTHERN NEW ENGLAND
 IN CT

CITY           SKY/WX    TMP DP  RH WIND       PRES   REMARKS
Bradley INTL   CLOUDY    61  49  64 NE15G22   30.40F
Hartford       CLOUDY    61  51  70 NE13      30.38F
Danbury        CLOUDY    58  50  75 NE12      30.36R
Wtrbury/Oxford NOT AVBL
Bridgeport     CLOUDY    64  52  64 NE18G25   30.32F
Meriden        CLOUDY    63  51  65 NE9G18    30.36S
New Haven      CLOUDY    63  52  67 NE14      30.33F
Chester        LGT RAIN  59  54  82 NE9       30.35S
Groton         LGT RAIN  63  54  72 NE15G24   30.35S
Wilimantic     CLOUDY    62  53  72 NE12      30.39S

 IN RI

CITY           SKY/WX    TMP DP  RH WIND       PRES   REMARKS
Providence     CLOUDY    63  50  62 E16G23    30.40S
Block Island   CLOUDY    61  56  83 NE18G30   30.35R
Westerly       CLOUDY    62  52  69 NE12G20   30.37R
 IN MA

CITY           SKY/WX    TMP DP  RH WIND       PRES   REMARKS
Boston         CLOUDY    60  52  74 NE21      30.45S
Worcester      CLOUDY    54  47  77 NE12G20   30.43S
Westfield      CLOUDY    58  49  72 N12       30.41F
Provincetown   CLOUDY    62  54  74 NE17G24   30.43F
Nantucket      CLOUDY    62  55  77 NE18G31   30.35F
$$

ANZ330-335-338-340-345-350-353-355-301700-
COASTAL MARINE OBSERVATIONS


STATION/POSITION TIME  SKY/WX   TEMP    WIND        PRES    VSBY  WAVE
                                AIR SEA DIR/SP/G                  HT/PER
                 (UTC)          (F)     (DEG/KT/KT) (MB)    (MI)  (FT/S)
NY HARB ENTRANCE 1450            64 69   50/ 27/ 33 1023.4         11/ 9
20S FIRE ISLAND  1450            63 67   60/ 29/ 39 1022.7         13/ 9
GREAT SOUTH BAY  1530            62 64   60/ 17/ 25   N/A
23 SSW MONTAUK P 1450            62 65   60/ 29/ 35 1025.3         11/ 8
15 E BARNEGAT LI 1530               69                N/A          13/ 9
HUDSON CANYON    1450            68 70              1020.5         15/10
KINGS POINT      1524            61 69              1025.8
EXECUTION ROCKS  1545            62      40/ 21/ 27   N/A
CENTRAL LI SOUND NOT AVBL
EASTERN LI SOUND NOT AVBL
ROBBINS REEF     1524            61      50/ 21/ 25 1025.5
$$


>>>>>>>>>>>>>>>>>>>>>>>>>>>> KEY <<<<<<<<<<<<<<<<<<<<<<<<<<<
>                                                          <
>     SKY/WX - Sky Condition/Present Weather               <
>     TMP    - Temperature in Fahrenheit                   <
>     DP     - Dew Point in Fahrenheit                     <
>     RH     - Relative Humidity in Percent                <
>     WIND   - Direction (from) and Speed in MPH           <
>     PRES   - Mean Sea Level Pressure (inches of Hg)      <
>     WCI    - Wind Chill Index                            <
>     VSB    - VISIBILITY IN MILES                         <
>     HX     - HEAT INDEX                                  <
>     TC     - TEMPERATURE IN CELSIUS                      <
>     VRB    - VARIABLE WIND DIRECTION                     <
>                                                          <
>>>>>>>>>>>>>>>>>>>>>>>>>>>> KEY <<<<<<<<<<<<<<<<<<<<<<<<<<<




USA.gov is the U.S. government's official web portal to all federal, state and local government web resources and services.